カタログに戻る

APRIZESAT 4

運用中通信SSO
NORAD 35684·PAYLOAD·🇺🇸 United States

打ち上げ Jul 29, 2009 から Baikonur Cosmodrome

Loading…

次のパス (今後24時間)

TLE

最新Source: Space-Track

元期: Sep 14, 2026, 11:11 UTC

1 35684U 09041D   26257.46614752  .00000514  00000-0  67694-4 0  9993
2 35684  98.1346 334.5374 0043864  33.5344 326.8632 14.83989266924602

AllMySatでAPRIZESAT 4をリアルタイム追跡

Download on the App Store